Weather History for Petersburg, WV

Change the Weather History Date:

Wednesday, April 3, 2013

  Actual Average (KEKN) Record (KEKN)
Temperature  
Mean Temperature 37 °F 46 °F  
Max Temperature 50 °F 58 °F 83 °F (2010)
Min Temperature 24 °F 33 °F 16 °F (1991)
Degree Days  
Heating Degree Days 28 19  
Month to date heating degree days 59  
Since 1 July heating degree days 5160  
Cooling Degree Days 0 0  
Month to date cooling degree days 0  
Year to date cooling degree days 0  
Moisture  
Dew Point 15 °F    
Average Humidity 46    
Maximum Humidity 82    
Minimum Humidity 20    
Precipitation  
Precipitation 0.00 in 0.13 in 2.01 in (1901)
Month to date precipitation 0.39  
Year to date precipitation 10.68  
Snow  
Snow 0.00 in - - ()
Month to date snowfall  
Since 1 September snowfall  
Snow Depth -    
Sea Level Pressure  
Sea Level Pressure 30.27 in    
Wind  
Wind Speed 4 mph (NW)    
Max Wind Speed 17 mph    
Max Gust Speed 32 mph    
Visibility 10 miles    
Events      
T = Trace of Precipitation, MM = Missing Value Source: NWS Daily Summary

Daily Weather History Graph

Daily Weather History Graph

Search for Another Location

Airport:

Trip Planner

Search our weather history database for the weather conditions in past years. The results will help you decide how hot, cold, wet, or windy it might be!

Date:

Astronomy

Apr. 03, 2013 Rise Set
Actual Time 6:57 AM EDT 7:42 PM EDT
Civil Twilight 6:30 AM EDT 8:09 PM EDT
Nautical Twilight 5:58 AM EDT 8:41 PM EDT
Astronomical Twilight 5:25 AM EDT 9:14 PM EDT
Moon 2:33 AM EDT (4/3) 12:55 PM EDT (4/3)
Length of Visible Light 13h 38m
Length of Day
12h 44m
Last Quarter, 45% of the Moon is Illuminated
Apr 3
Last Quarter
Apr 10
New
Apr 18
First Quarter
Apr 25
Full
May 2
Last Quarter

Hourly Weather History & Observations

Time (EDT) Temp. Windchill Dew Point Humidity Pressure Visibility Wind Dir Wind Speed Gust Speed Precip Events Conditions
12:35 AM 32.9 °F - 18.7 °F 56% 30.19 in 10.0 mi Calm Calm - N/A   Clear
12:55 AM 30.7 °F - 19.8 °F 64% 30.19 in 10.0 mi Calm Calm - N/A   Clear
1:15 AM 31.3 °F - 21.4 °F 67% 30.20 in 10.0 mi Calm Calm - N/A   Clear
1:35 AM 30.0 °F - 21.6 °F 71% 30.20 in 10.0 mi Calm Calm - N/A   Clear
1:55 AM 29.1 °F - 20.8 °F 71% 30.21 in 10.0 mi Calm Calm - N/A   Scattered Clouds
2:15 AM 28.9 °F - 20.7 °F 71% 30.21 in 10.0 mi Calm Calm - N/A   Scattered Clouds
2:35 AM 28.0 °F - 19.9 °F 72% 30.21 in 10.0 mi Calm Calm - N/A   Scattered Clouds
2:55 AM 27.9 °F - 20.5 °F 74% 30.21 in 10.0 mi Calm Calm - N/A   Clear
3:15 AM 28.8 °F - 20.8 °F 72% 30.21 in 10.0 mi Calm Calm - N/A   Clear
3:35 AM 28.6 °F - 21.4 °F 74% 30.21 in 10.0 mi Calm Calm - N/A   Clear
3:55 AM 26.2 °F - 19.8 °F 76% 30.22 in 10.0 mi Calm Calm - N/A   Clear
4:15 AM 26.6 °F - 20.3 °F 77% 30.22 in 10.0 mi Calm Calm - N/A   Clear
4:35 AM 26.1 °F - 19.9 °F 78% 30.21 in 10.0 mi Calm Calm - N/A   Clear
4:55 AM 26.2 °F - 19.9 °F 77% 30.22 in 10.0 mi Calm Calm - N/A   Clear
5:15 AM 25.5 °F - 19.8 °F 79% 30.22 in 10.0 mi Calm Calm - N/A   Clear
5:35 AM 25.2 °F - 19.0 °F 78% 30.23 in 10.0 mi Calm Calm - N/A   Clear
5:55 AM 25.5 °F - 19.0 °F 76% 30.24 in 10.0 mi Calm Calm - N/A   Clear
6:15 AM 26.8 °F - 21.0 °F 79% 30.24 in 10.0 mi Calm Calm - N/A   Clear
6:35 AM 25.2 °F - 19.6 °F 79% 30.25 in 10.0 mi Calm Calm - N/A   Clear
6:55 AM 24.8 °F - 19.8 °F 81% 30.26 in 10.0 mi Calm Calm - N/A   Clear
7:15 AM 24.4 °F - 19.6 °F 82% 30.26 in 10.0 mi Calm Calm - N/A   Clear
7:35 AM 24.8 °F - 19.9 °F 82% 30.26 in 10.0 mi Calm Calm - N/A   Clear
7:55 AM 26.6 °F - 21.4 °F 81% 30.26 in 10.0 mi Calm Calm - N/A   Clear
8:15 AM 28.2 °F - 21.7 °F 77% 30.26 in 10.0 mi Calm Calm - N/A   Clear
8:35 AM 30.4 °F - 22.8 °F 73% 30.26 in 10.0 mi Calm Calm - N/A   Clear
8:55 AM 32.5 °F - 23.9 °F 70% 30.26 in 10.0 mi Calm Calm - N/A   Clear
9:15 AM 37.0 °F 33.3 °F 23.0 °F 57% 30.27 in 10.0 mi East 4.6 mph - N/A   Clear
9:35 AM 40.6 °F - 17.2 °F 39% 30.27 in 10.0 mi Calm Calm - N/A   Clear
9:55 AM 40.5 °F - 13.3 °F 33% 30.28 in 10.0 mi Calm Calm - N/A   Clear
10:15 AM 41.7 °F - 12.9 °F 31% 30.29 in 10.0 mi Calm Calm - N/A   Clear
10:35 AM 43.0 °F 36.4 °F 9.9 °F 26% 30.29 in 10.0 mi NW 12.7 mph 17.3 mph N/A   Clear
10:55 AM 44.2 °F 38.8 °F 8.8 °F 24% 30.29 in 10.0 mi WNW 10.4 mph 17.3 mph N/A   Clear
11:15 AM 45.1 °F 39.9 °F 10.9 °F 25% 30.28 in 10.0 mi NNW 10.4 mph 16.1 mph N/A   Clear
11:35 AM 45.5 °F 39.6 °F 10.4 °F 24% 30.28 in 10.0 mi West 12.7 mph - N/A   Clear
11:55 AM 45.5 °F 39.2 °F 8.4 °F 22% 30.28 in 10.0 mi WNW 13.8 mph 19.6 mph N/A   Clear
12:15 PM 45.7 °F 39.1 °F 8.2 °F 22% 30.27 in 10.0 mi WNW 15.0 mph 20.7 mph N/A   Clear
12:35 PM 45.7 °F 38.6 °F 7.9 °F 21% 30.26 in 10.0 mi WNW 17.3 mph 23.0 mph N/A   Clear
12:55 PM 46.6 °F - 8.8 °F 22% 30.25 in 10.0 mi WNW 13.8 mph 24.2 mph N/A   Clear
1:15 PM 47.1 °F - 9.5 °F 22% 30.25 in 10.0 mi NW 12.7 mph 23.0 mph N/A   Clear
1:35 PM 47.3 °F - 9.9 °F 22% 30.24 in 10.0 mi NW 11.5 mph 23.0 mph N/A   Clear
2:15 PM 48.6 °F - 10.4 °F 21% 30.23 in 10.0 mi NW 17.3 mph 25.3 mph N/A   Clear
2:35 PM 49.5 °F - 11.7 °F 22% 30.23 in 10.0 mi NW 13.8 mph 25.3 mph N/A   Clear
2:55 PM 49.5 °F - 10.9 °F 21% 30.23 in 10.0 mi NW 5.8 mph 25.3 mph N/A   Clear
3:15 PM 49.8 °F - 10.0 °F 20% 30.23 in 10.0 mi WNW 13.8 mph 28.8 mph N/A   Clear
3:35 PM 50.2 °F - 11.7 °F 21% 30.23 in 10.0 mi West 15.0 mph 28.8 mph N/A   Clear
3:55 PM 50.4 °F - 11.8 °F 21% 30.24 in 10.0 mi West 17.3 mph 23.0 mph N/A   Clear
4:15 PM 50.2 °F - 11.5 °F 21% 30.25 in 10.0 mi NW 13.8 mph 26.5 mph N/A   Clear
4:35 PM 49.8 °F - 11.1 °F 21% 30.25 in 10.0 mi NW 16.1 mph 21.9 mph N/A   Clear
4:55 PM 49.3 °F - 11.7 °F 22% 30.27 in 10.0 mi NW 16.1 mph 32.2 mph N/A   Clear
5:15 PM 48.6 °F - 11.5 °F 23% 30.28 in 10.0 mi West 15.0 mph 26.5 mph N/A   Clear
5:35 PM 48.2 °F - 11.7 °F 23% 30.28 in 10.0 mi NW 13.8 mph 24.2 mph N/A   Clear
5:55 PM 47.3 °F - 11.3 °F 23% 30.29 in 10.0 mi NW 13.8 mph 23.0 mph N/A   Clear
6:15 PM 46.4 °F 40.7 °F 9.9 °F 23% 30.31 in 10.0 mi NNW 12.7 mph 17.3 mph N/A   Clear
6:35 PM 45.7 °F 39.1 °F 9.7 °F 23% 30.32 in 10.0 mi NW 15.0 mph 20.7 mph N/A   Clear
6:55 PM 44.8 °F 38.3 °F 8.4 °F 23% 30.32 in 10.0 mi NW 13.8 mph 21.9 mph N/A   Clear
7:15 PM 43.7 °F 38.1 °F 9.7 °F 25% 30.33 in 10.0 mi NNW 10.4 mph 16.1 mph N/A   Clear
7:35 PM 42.6 °F 35.9 °F 10.0 °F 26% 30.33 in 10.0 mi NNW 12.7 mph 17.3 mph N/A   Clear
7:55 PM 41.9 °F 39.0 °F 10.2 °F 27% 30.34 in 10.0 mi NNE 4.6 mph - N/A   Clear
8:15 PM 41.2 °F 36.6 °F 11.1 °F 29% 30.34 in 10.0 mi NNW 6.9 mph - N/A   Clear
8:35 PM 41.0 °F 38.0 °F 11.5 °F 30% 30.34 in 10.0 mi NNE 4.6 mph - N/A   Clear
8:55 PM 40.3 °F 37.1 °F 12.2 °F 32% 30.36 in 10.0 mi North 4.6 mph - N/A   Clear
9:15 PM 40.1 °F 36.1 °F 12.2 °F 32% 30.36 in 10.0 mi North 5.8 mph - N/A   Clear
9:35 PM 39.0 °F 34.8 °F 12.6 °F 34% 30.37 in 10.0 mi NE 5.8 mph - N/A   Clear
9:55 PM 37.6 °F - 14.0 °F 38% 30.37 in 10.0 mi Calm Calm - N/A   Clear
10:15 PM 37.6 °F - 15.6 °F 41% 30.37 in 10.0 mi Calm Calm - N/A   Clear
10:35 PM 36.3 °F - 15.6 °F 43% 30.38 in 10.0 mi Calm Calm - N/A   Clear
10:55 PM 34.3 °F - 16.0 °F 47% 30.38 in 10.0 mi Calm Calm - N/A   Clear
11:15 PM 35.6 °F - 14.7 °F 42% 30.38 in 10.0 mi Calm Calm - N/A   Clear
11:35 PM 33.8 °F - 16.5 °F 49% 30.38 in 10.0 mi Calm Calm - N/A   Clear
11:55 PM 30.2 °F 26.7 °F 18.3 °F 61% 30.39 in 10.0 mi West 3.5 mph - N/A   Clear